TimePST,TemperatureF,Dew PointF,Humidity,Sea Level PressureIn,VisibilityMPH,Wind Direction,Wind SpeedMPH,Gust SpeedMPH,PrecipitationIn,Events,Conditions,WindDirDegrees,DateUTC
12:53 AM,27.0,26.1,96,29.91,7.0,Calm,Calm,-,N/A,,Overcast,0,2013-01-29 08:53:00
1:28 AM,26.6,26.6,100,29.86,8.0,Calm,Calm,-,N/A,,Overcast,0,2013-01-29 09:28:00
1:53 AM,28.0,26.1,92,29.94,8.0,NW,3.5,-,N/A,,Overcast,310,2013-01-29 09:53:00
2:53 AM,27.0,26.1,96,29.96,9.0,Calm,Calm,-,N/A,,Overcast,0,2013-01-29 10:53:00
4:53 AM,28.0,26.1,92,30.00,8.0,Calm,Calm,-,N/A,,Overcast,0,2013-01-29 12:53:00
5:53 AM,27.0,26.1,96,30.03,8.0,Calm,Calm,-,N/A,,Overcast,0,2013-01-29 13:53:00
6:53 AM,27.0,26.1,96,30.06,8.0,Calm,Calm,-,N/A,,Overcast,0,2013-01-29 14:53:00
7:53 AM,27.0,26.1,96,30.09,7.0,Calm,Calm,-,N/A,,Overcast,0,2013-01-29 15:53:00
8:09 AM,26.6,26.6,100,30.02,5.0,Calm,Calm,-,N/A,,Overcast,0,2013-01-29 16:09:00
8:51 AM,26.6,26.6,100,30.05,5.0,Calm,Calm,-,N/A,,Overcast,0,2013-01-29 16:51:00
8:53 AM,27.0,26.1,96,30.13,5.0,Calm,Calm,-,N/A,,Overcast,0,2013-01-29 16:53:00
9:11 AM,26.6,26.6,100,30.06,4.0,Calm,Calm,-,N/A,,Overcast,0,2013-01-29 17:11:00
9:22 AM,28.4,26.6,93,30.07,5.0,Calm,Calm,-,N/A,,Overcast,0,2013-01-29 17:22:00
9:53 AM,28.0,27.0,96,30.16,5.0,Calm,Calm,-,N/A,,Overcast,0,2013-01-29 17:53:00
10:50 AM,30.2,26.6,86,30.11,6.0,Calm,Calm,-,N/A,,Overcast,0,2013-01-29 18:50:00
10:53 AM,30.0,27.0,88,30.18,6.0,Calm,Calm,-,N/A,,Overcast,0,2013-01-29 18:53:00
11:53 AM,30.9,28.0,89,30.19,8.0,Calm,Calm,-,N/A,,Overcast,0,2013-01-29 19:53:00
12:53 PM,30.9,28.0,89,30.20,10.0,Calm,Calm,-,N/A,,Partly Cloudy,0,2013-01-29 20:53:00
1:53 PM,28.9,27.0,92,30.21,10.0,South,4.6,-,N/A,,Scattered Clouds,180,2013-01-29 21:53:00
2:53 PM,30.0,28.0,92,30.20,10.0,SSE,4.6,-,N/A,,Mostly Cloudy,150,2013-01-29 22:53:00
3:53 PM,32.0,30.0,92,30.21,7.0,SE,5.8,-,N/A,,Overcast,140,2013-01-29 23:53:00
4:53 PM,30.9,30.0,96,30.21,8.0,SSE,3.5,-,N/A,,Overcast,150,2013-01-30 00:53:00
5:46 PM,32.0,30.2,93,30.15,1.8,SSE,6.9,-,0.00,Snow,Light Snow,160,2013-01-30 01:46:00
5:53 PM,32.0,30.0,92,30.22,1.5,SSE,5.8,-,0.00,Snow,Light Snow,160,2013-01-30 01:53:00
6:42 PM,30.2,30.2,100,30.15,1.2,South,5.8,-,0.02,Snow,Light Snow,170,2013-01-30 02:42:00
6:53 PM,30.9,30.9,100,30.21,1.5,SSE,5.8,-,0.03,Snow,Light Snow,160,2013-01-30 02:53:00
7:13 PM,32.0,30.2,93,30.14,1.5,SSE,4.6,-,0.00,Snow,Light Snow,160,2013-01-30 03:13:00
7:53 PM,32.0,30.9,96,30.20,1.0,Calm,Calm,-,0.02,Snow,Light Snow,0,2013-01-30 03:53:00
8:14 PM,30.2,30.2,100,30.13,0.8,Calm,Calm,-,0.01,Snow,Light Snow,0,2013-01-30 04:14:00
8:28 PM,32.0,30.2,93,30.13,1.0,Calm,Calm,-,0.02,Snow,Light Snow,0,2013-01-30 04:28:00
8:40 PM,30.2,30.2,100,30.12,1.2,ESE,3.5,-,0.02,Snow,Light Snow,120,2013-01-30 04:40:00
8:49 PM,30.2,30.2,100,30.12,1.5,SE,3.5,-,0.02,Snow,Light Snow,130,2013-01-30 04:49:00
8:53 PM,30.9,30.9,100,30.19,1.8,SE,3.5,-,0.02,Snow,Light Snow,130,2013-01-30 04:53:00
9:01 PM,30.2,30.2,100,30.12,2.0,Calm,Calm,-,0.01,Snow,Light Snow,0,2013-01-30 05:01:00
9:24 PM,30.2,30.2,100,30.11,3.0,SSE,3.5,-,0.01,Snow,Light Snow,150,2013-01-30 05:24:00
9:53 PM,30.9,30.9,100,30.17,3.0,Calm,Calm,-,0.01,,Overcast,0,2013-01-30 05:53:00
10:30 PM,30.2,30.2,100,30.09,4.0,Calm,Calm,-,N/A,,Overcast,0,2013-01-30 06:30:00
10:50 PM,30.2,30.2,100,30.10,3.0,Calm,Calm,-,N/A,,Overcast,0,2013-01-30 06:50:00
10:53 PM,30.9,30.0,96,30.17,3.0,Calm,Calm,-,N/A,,Overcast,0,2013-01-30 06:53:00
11:34 PM,32.0,30.2,93,30.10,9.0,Calm,Calm,-,N/A,,Overcast,0,2013-01-30 07:34:00
11:53 PM,32.0,30.9,96,30.16,9.0,Calm,Calm,-,N/A,,Overcast,0,2013-01-30 07:53:00